Vienna, OH

11:13 PM EST on February 19, 2017 (GMT -0500)
Youngstown-Warren Regional

Weather History for KYNG - September, 2012

Change the Weather History Date:

Monday, September 24, 2012

  Actual Average Record
Temperature  
Mean Temperature 50 °F 59 °F  
Max Temperature 59 °F 69 °F 91 °F (1936)
Min Temperature 40 °F 49 °F 32 °F (1995)
Degree Days  
Heating Degree Days 15 7  
Month to date heating degree days 124 96  
Since 1 July heating degree days 130 134  
Cooling Degree Days 0 1  
Month to date cooling degree days 64 46  
Year to date cooling degree days 758 532  
Moisture  
Dew Point 38 °F    
Average Humidity 68    
Maximum Humidity 96    
Minimum Humidity 40    
Precipitation  
Precipitation T in 0.12 in 0.70 in (1977)
Month to date precipitation 4.02 3.04  
Year to date precipitation 32.46 29.26  
Snow  
Snow 0.00 in 0.00 in - ()
Month to date snowfall 0.0 0.0  
Since 1 July snowfall T 0.0  
Since 1 September snowfall 0.0 0.0  
Snow Depth 0.00 in    
Sea Level Pressure  
Sea Level Pressure 30.17 in    
Wind  
Wind Speed 7 mph (SW)    
Max Wind Speed 15 mph    
Max Gust Speed 20 mph    
Visibility 10 miles    
Events Rain    
T = Trace of Precipitation, MM = Missing Value Source: NWS Daily Summary

Daily Weather History Graph

Daily Weather History Graph

Search for Another Location

Airport or City:

Trip Planner

Search our weather history database for the weather conditions in past years. The results will help you decide how hot, cold, wet, or windy it might be!

Date:

Astronomy

Sep. 24, 2012 Rise Set
Actual Time 7:12 AM EDT 7:15 PM EDT
Civil Twilight 6:45 AM EDT 7:43 PM EDT
Nautical Twilight 6:12 AM EDT 8:15 PM EDT
Astronomical Twilight 5:40 AM EDT 8:47 PM EDT
Moon 4:03 PM EDT (9/24) 1:24 AM EDT (9/24)
Length of Visible Light 12h 57m
Length of Day
12h 02m
Waxing Gibbous, 70% of the Moon is Illuminated
Sep 24
Waxing Gibbous
Sep 29
Full
Oct 8
Last Quarter
Oct 15
New
Oct 21
First Quarter

Hourly Weather History & Observations

Time (EDT) Temp. Windchill Dew Point Humidity Pressure Visibility Wind Dir Wind Speed Gust Speed Precip Events Conditions
12:51 AM 45.0 °F 43.5 °F 43.0 °F 93% 30.20 in 10.0 mi West 3.5 mph - N/A   Overcast
1:51 AM 45.0 °F - 41.0 °F 86% 30.19 in 10.0 mi Calm Calm - 0.00 in   Overcast
2:51 AM 43.0 °F 40.3 °F 39.9 °F 89% 30.21 in 10.0 mi WNW 4.6 mph - N/A   Partly Cloudy
3:51 AM 44.1 °F 42.5 °F 39.9 °F 85% 30.20 in 10.0 mi WSW 3.5 mph - 0.00 in Rain Light Rain
4:51 AM 44.1 °F 42.5 °F 41.0 °F 89% 30.20 in 10.0 mi SW 3.5 mph - 0.00 in   Overcast
5:51 AM 43.0 °F 41.3 °F 41.0 °F 93% 30.22 in 10.0 mi West 3.5 mph - N/A   Mostly Cloudy
6:51 AM 41.0 °F 39.0 °F 39.9 °F 96% 30.22 in 10.0 mi SW 3.5 mph - N/A   Scattered Clouds
7:51 AM 42.1 °F 39.2 °F 39.9 °F 92% 30.24 in 8.0 mi SSW 4.6 mph - N/A   Scattered Clouds
8:51 AM 45.0 °F 41.2 °F 42.1 °F 90% 30.25 in 10.0 mi SW 6.9 mph - N/A   Scattered Clouds
9:51 AM 48.9 °F - 41.0 °F 74% 30.25 in 10.0 mi WSW 4.6 mph - N/A   Scattered Clouds
10:51 AM 52.0 °F - 39.9 °F 63% 30.25 in 10.0 mi Variable 4.6 mph - N/A   Mostly Cloudy
11:01 AM 53.6 °F - 41.0 °F 62% 30.23 in 10.0 mi SW 9.2 mph - N/A   Mostly Cloudy
11:38 AM 51.8 °F - 37.4 °F 58% 30.23 in 10.0 mi WSW 10.4 mph - N/A   Mostly Cloudy
11:51 AM 53.1 °F - 37.0 °F 55% 30.24 in 10.0 mi WSW 9.2 mph - N/A   Mostly Cloudy
12:51 PM 54.0 °F - 36.0 °F 51% 30.22 in 10.0 mi Variable 5.8 mph - N/A   Mostly Cloudy
1:51 PM 57.0 °F - 37.0 °F 47% 30.18 in 10.0 mi SW 8.1 mph - N/A   Mostly Cloudy
2:51 PM 57.9 °F - 34.0 °F 41% 30.16 in 10.0 mi WSW 13.8 mph 19.6 mph N/A   Mostly Cloudy
3:51 PM 57.9 °F - 34.0 °F 41% 30.13 in 10.0 mi SSW 12.7 mph 19.6 mph N/A   Mostly Cloudy
4:51 PM 57.9 °F - 34.0 °F 41% 30.10 in 10.0 mi SW 12.7 mph - N/A   Mostly Cloudy
5:51 PM 57.9 °F - 34.0 °F 41% 30.09 in 10.0 mi SSW 10.4 mph 18.4 mph N/A   Mostly Cloudy
6:51 PM 55.0 °F - 35.1 °F 47% 30.08 in 10.0 mi SSW 5.8 mph - N/A   Mostly Cloudy
7:51 PM 52.0 °F - 35.1 °F 53% 30.07 in 10.0 mi South 5.8 mph - N/A   Mostly Cloudy
8:51 PM 50.0 °F - 36.0 °F 59% 30.06 in 10.0 mi South 5.8 mph - N/A   Partly Cloudy
9:51 PM 50.0 °F - 36.0 °F 59% 30.06 in 10.0 mi South 6.9 mph - N/A   Partly Cloudy
10:51 PM 50.0 °F - 37.0 °F 61% 30.07 in 10.0 mi South 9.2 mph - N/A   Partly Cloudy
11:51 PM 48.9 °F - 37.0 °F 64% 30.07 in 10.0 mi SSW 9.2 mph - N/A   Clear